QAEM 100 R/B, 61071

Orbit data source: Space-Track

QAEM 100 R/B, 61071 is space debris in LEO originally from a launch on Sat, 14 Sep 2024 UTC launched from the Sharud Missile Test Site (SMTS). Debris objects in space refer to the collection of defunct objects orbiting the Earth. Examples of debris include non-operational satellites, rocket bodies, and fragments generated from explosions, collisions, or faulty payload assembly.

Loading next visibility...
Identifier
61071, 2024-165A
Orbit
LEO
Country
Flag of UnknownUnknown / IRAN
Related business
Flag of IRIslamic Revolutionary Guard Corps (IRGC) (IR)
Manufacturer
IRGC
Mission
Operational spacecraft
Bus & Motor
Unknown
Mass
~200 kg wet, ~200 kg dry
Launch date (UTC)
2024-09-14 (1 year ago)
Launch vehicle
Unknown
Launch site
Sharud Missile Test Site (SMTS)
Object type
Payload
Rocket body
Debris
Shape & HBR
Unknown shape, 0.8 m
Radar Cross Section
Medium (>0.1 m² and <1 m²)

Expand to show TLE details & history
Last TLE update: 4 hours ago

TLE from 4 hours ago
0 QAEM 100 R/B
1 61071U 24165A   25310.28152131  .00006911  00000-0  39386-3 0  9996
2 61071  64.0760  47.8465 0048515 318.5088  41.2348 15.12619992 63118
Epoch: 2025-11-06T06:45Z
TLE epoch observation values (Epoch: 2025-11-06T06:45:23.441Z)
Latitude
-0.00005°
Longitude
-99.24328°
Altitude
505.051 km
Speed
7.626 km/s
True Right ascension
03h 11m 23s
True Declination
0° 00' 00"
Sunlit
Object was in full shadow at epoch
Visualization orbit readout
Latitude
Unknown
Longitude
Unknown
Altitude
Unknown
Speed
Unknown
Apparent Right ascension
Unknown
Apparent Declination
Unknown
Sunlit
N/A
Visualization observer readout
Local Sidereal Time
07:18:33
Azimuth
Unknown
Elevation
Unknown
Doppler factor
Unknown
Orbital elements
Apogee altitude
560.357 km
Perigee altitude
493.358 km
Semi-major axis
6,904.995 km
Eccentricity
0.00485
Inclination
64.076°
RAAN
47.8465°
Arg. of periapsis
318.5088°
True anomaly
41.60292°
Mean anomaly
41.2348°
Eccentric anomaly
41.41869°
Mean motion
3.78267 °/min
Orbital period
95.17 mins
BSTAR
0.00039386
Loading maneuver chart data...
Computing Atmospheric mass density...
Loading historical data...
Loading historical data...
Loading historical data...
Loading historical data...
Loading historical data...
Loading historical data...
Loading historical data...
Other satellites on launch #165 in the year 2024 (2024-09-14 UTC)

Documentation

Showing up to 5 results
|